Content
SEND FEEDBACK

Daily
Averages
Monthly
Summary
United States of America

EL PASO, TEXAS


Home > North America > United States > Texas
Elevation: 3918 feet     Latitude: 31 48N     Longitude: 106 24W

WEATHER
 
SELECT A DAY
Number of Records: 174,057;   Date Range: 1/1/95 - 9/29/14
 
SHARE

PRINT THIS DATA

[ ← Previous Day ]
WEATHER ALMANAC - OCTOBER 18, 2013
[ Next Day → ]
[ °C ]   °F
Weather ElementAverageHighLow
Temperature60.8 °F75.9 °F (3:51 pm)43 °F (6:51 am)
Dewpoint24.3 °F32 °F (9:51 pm)17.1 °F (4:51 pm)
Humidity28.7 %50 % (3:51 am)11 % (4:51 pm)
Barometer29.88 in30.01 in (11:51 pm)29.81 in (2:51 am)
Wind Speed5.5 mph12.7 mph (12:51 pm)
Wind Gust16.1 mph (1:51 pm)
Weather ElementAverage
Visibility10 mi
Wind DirectionESE (122.6 °)

Weather ElementTotal
Precipitation---
Heating Degree Days5.6 (Base 65)
Growing Degree Days9.5 (Base 50)
Averaged from 23 records on October 18, 2013
WEATHER CONDITIONS BREAKOUT
WIND DIRECTION BREAKOUT
WEATHER BY HOUR - OCTOBER 18, 2013
[ °C ]   °F
Local TimeTemperatureDewpointHumidityBarometerVisibilityWind DirectionWind SpeedGust SpeedPrecipitationEventsConditions
1:51 AM50.0 °F28.0 °F43 %29.82 in10.0 miSouth (190°)5.8 mphClear
2:51 AM52.0 °F28.9 °F41 %29.81 in10.0 miSSE (150°)4.6 mphClear
3:51 AM46.0 °F28.0 °F50 %29.82 in10.0 miSE (130°)3.5 mphClear
4:51 AM48.0 °F28.0 °F46 %29.82 in10.0 miSSE (150°)3.5 mphClear
5:51 AM48.0 °F26.1 °F42 %29.84 in10.0 miEast (80°)4.6 mphClear
6:51 AM43.0 °F25.0 °F49 %29.87 in10.0 miSE (130°)8.1 mphClear
7:51 AM48.0 °F26.1 °F42 %29.87 in10.0 miCalmClear
8:51 AM55.9 °F28.0 °F34 %29.90 in10.0 miCalmClear
9:51 AM61.0 °F28.0 °F29 %29.91 in10.0 miNE (50°)4.6 mphClear
10:51 AM66.9 °F21.9 °F18 %29.90 in10.0 miEast (90°)3.5 mphClear
11:51 AM70.0 °F21.9 °F16 %29.89 in10.0 miVariable5.8 mphClear
12:51 PM73.0 °F18.0 °F12 %29.87 in10.0 miWest (280°)12.7 mphClear
1:51 PM73.9 °F19.0 °F13 %29.85 in10.0 miWNW (290°)9.2 mph16.1 mphClear
2:51 PM75.0 °F19.0 °F12 %29.83 in10.0 miCalmClear
3:51 PM75.9 °F19.0 °F12 %29.84 in10.0 miWNW (300°)9.2 mphClear
4:51 PM75.9 °F17.1 °F11 %29.84 in10.0 miNW (310°)8.1 mphClear
5:51 PM75.0 °F17.1 °F11 %29.86 in10.0 miNNW (330°)8.1 mphClear
6:51 PM70.0 °F21.0 °F16 %29.91 in10.0 miENE (60°)5.8 mphClear
7:51 PM62.1 °F23.0 °F22 %29.94 in10.0 miEast (80°)6.9 mphClear
8:51 PM63.0 °F23.0 °F22 %29.94 in10.0 miCalmClear
9:51 PM57.9 °F32.0 °F37 %29.95 in10.0 miEast (80°)9.2 mphClear
10:51 PM55.9 °F30.9 °F39 %29.98 in10.0 miENE (60°)4.6 mphClear
11:51 PM53.1 °F30.9 °F43 %30.01 in10.0 miENE (60°)9.2 mphClear
Hourly data recorded from KELP, located miles away from El Paso, Texas







STORIES FROM OUR PARTNERS